Vertical_Velocity
-2 -3 -1 1 -1 2 0 -1 2 1 3 2 1 -1 -2 1 -2 -1 -2 1 -1 -1
-1 -2 0 0 2 1 -0 -0 1 2 1 0 -2 -1 3 -1 -2 -2 -1 -0 -0 -1
0 1 1 0 1 2 3 1 1 -1 -1 -2 -1 3 1 -1 -3 -1 -0 -0 2 -1
-0 1 2 1 1 3 2 0 -0 -1 1 1 -0 0 1 -2 -1 1 1 -0 -1 1
1 2 1 -0 1 1 1 1 2 0 -0 1 1 -0 -0 -0 -0 0 -0 -1 -0 -1
-1 -1 0 -0 -1 -1 1 1 0 1 1 -0 -0 -0 -1 0 -1 -0 2 -0 -1 -2
-1 -1 -2 0 -0 -1 2 2 -0 0 1 1 1 0 -1 0 1 1 1 -1 -1 1
-0 1 -1 1 1 1 1 1 -0 0 -1 -1 -1 1 1 -1 1 1 -1 0 1 0
-0 -1 -1 -0 0 1 1 0 0 -1 -0 -2 1 2 0 -1 1 -0 0 -0 -0 -1
-1 -2 -2 1 1 -0 -0 1 0 0 -1 1 -1 1 -0 1 0 1 0 -2 -1 -1
-1 -2 -2 -1 -1 -1 1 1 0 0 0 1 1 1 -0 0 0 1 -0 -1 -0 -1
-2 -2 -2 -2 -2 -1 1 1 -1 1 0 1 2 1 -0 0 0 1 -1 -0 -1 -1
-1 -2 -2 -1 -2 -1 -1 2 1 -1 0 2 3 1 0 0 1 0 -1 -0 -1 -1
-0 -1 2 1 -2 1 -0 1 -1 0 1 2 1 1 0 -0 0 0 -1 -1 -1 -0
Height
1544 1547 1550 1552 1554 1555 1557 1558 1559 1561 1562 1563 1564 1566 1566 1567 1567 1569 1569 1569 1569 1568
1542 1545 1548 1550 1553 1554 1556 1558 1560 1561 1562 1564 1565 1567 1568 1568 1569 1571 1571 1570 1570 1569
1541 1544 1546 1549 1551 1553 1556 1558 1560 1561 1563 1565 1566 1567 1568 1569 1570 1572 1572 1571 1571 1570
1538 1541 1543 1546 1550 1553 1555 1558 1560 1562 1564 1565 1566 1567 1569 1570 1571 1573 1572 1572 1572 1570
1536 1538 1540 1544 1549 1552 1554 1557 1559 1561 1563 1565 1567 1568 1570 1571 1571 1573 1573 1572 1571 1570
1531 1535 1539 1542 1547 1550 1553 1556 1558 1561 1563 1565 1567 1568 1570 1571 1572 1572 1572 1571 1571 1571
1528 1533 1537 1541 1545 1549 1552 1554 1557 1560 1563 1565 1567 1568 1569 1571 1571 1572 1572 1571 1571 1570
1526 1531 1535 1539 1543 1547 1550 1553 1556 1559 1561 1564 1566 1568 1569 1570 1571 1571 1571 1571 1571 1570
1523 1528 1532 1537 1540 1544 1547 1551 1553 1556 1560 1562 1565 1567 1569 1570 1570 1570 1570 1570 1570 1569
1518 1523 1528 1534 1537 1541 1544 1548 1551 1554 1557 1560 1563 1566 1567 1568 1569 1569 1569 1569 1569 1569
1514 1519 1525 1529 1534 1539 1542 1545 1549 1552 1556 1559 1561 1564 1566 1567 1567 1568 1568 1568 1568 1568
1509 1514 1520 1524 1529 1535 1539 1542 1546 1550 1553 1556 1559 1562 1563 1565 1566 1567 1567 1567 1567 1566
1504 1509 1515 1519 1525 1531 1536 1540 1544 1548 1551 1555 1557 1559 1561 1562 1564 1565 1565 1565 1565 1564
1500 1505 1511 1516 1522 1528 1533 1537 1541 1545 1548 1551 1554 1557 1558 1560 1561 1562 1563 1563 1563 1562